sat.trackr.live / text

‹ back to catalog

STARLINK-32523

NORAD 62165 · 2024-225C

PAYLOAD ACTIVE UNKNOWN

§ Identity

Operator
Country
US
Launch date
2024-11-30
Launch site
AFWTR
Launch vehicle
Mass (kg)
RCS (m²)

Purposes: comms

External: N2YO · Heavens-Above · Gunter

§ Orbital elements

Epoch: 2026-09-21T18:25:45.268320Z

Period
96.11 min
Inclination
70.0021°
Eccentricity
0.0003202
Mean motion
14.98334225 rev/d
Perigee alt
569.8 km
Apogee alt
574.3 km
Semi-major
6,950.2 km
B*
3.2321e-4
RAAN
30.1506°
Arg perigee
268.7862°
Mean anomaly
91.2930°
Rev number
9,924

§ Raw data

STARLINK-325231 62165U 24225C   26264.76788505  .00003766  00000+0  32321-3 0  99962 62165  70.0021  30.1506 0003202 268.7862  91.2930 14.98334225 99242

JSON: /api/v1/satellites/62165 · /tle

For live sub-satellite position, see the globe view (requires WebGL).

§ Visibility from observer

Set your observer location to see the next 7 days of passes ≥ 10°. The values pass through the URL so the page stays shareable.

No JS? Fill the form by hand. The geolocation button needs JavaScript.